Flag for France Weather past 2 weeks in Bourges, France

Now
52 °F

Cool.


Feels Like: 52 °F
Forecast: 52 / 74 °F
Wind: No wind

Location: Bourges

Current Time: Oct 2, 2014 at 6:26:36 AM

Latest Report: Oct 2, 2014 at 5:00 AM


Visibility: 7 mi

Pressure: 30.36 "Hg

Humidity: 95%

Dew point: 50 °F

Location of BourgesLocation

Historic Weather in Bourges — Graph

°F

Bourges temperature yesterday

Maximum temperature yesterday: 75 °F (at 4:00 PM)
Minimum temperature yesterday: 54 °F (at 8:00 AM)
Average temperature yesterday: 64 °F

Past Weeks' High & Low Weather Summary

 TemperatureHumidityPressure
High77 °F (Sep 28, 3:00 PM)99% (Sep 25, 9:00 AM)30.37 "Hg (Sep 25, 9:00 AM)
Low45 °F (Sep 26, 8:00 AM)40% (Sep 27, 3:00 PM)29.74 "Hg (Sep 17, 7:00 PM)
Average61 °F79%30.12 "Hg
* Reported Sep 17 5:00 AM — Oct 2 5:00 AM, Bourges, Weather by CustomWeather, © 2014

Note: Actual official high and low records may vary slightly from our data, if they occured in-between our weather recording intervals... More about our weather records

Advertising

Bourges weather history for previous 24 hours

 ConditionsComfort  
Time TempWeatherWind HumidityBarometerVisibility
5:00 AM
Oct 2
52 °FCool.No wind95%30.36 "Hg7 mi
4:00 AM53 °FCool.No wind95%30.36 "Hg5 mi
3:00 AM54 °FCool.No wind91%30.37 "Hg11 mi
2:00 AM54 °FCool.No wind92%30.37 "Hg7 mi
1:00 AM57 °FCool.1 mph91%30.37 "Hg9 mi
12:00 AM57 °FCool.1 mph85%30.37 "Hg12 mi
11:00 PM
Oct 1
59 °FCool.2 mph83%30.37 "Hg12 mi
10:00 PM61 °FOvercast.2 mph77%30.36 "Hg12 mi
9:00 PM63 °FMild.3 mph72%30.35 "Hg12 mi
8:00 PM66 °FMild.2 mph65%30.33 "Hg12 mi
7:00 PM71 °FMild.5 mph55%30.32 "Hg12 mi
6:00 PM73 °FMild.6 mph50%30.30 "Hg12 mi
5:00 PM74 °FPassing clouds.8 mph51%30.30 "Hg16 mi
4:00 PM75 °FPassing clouds.7 mph46%30.30 "Hg16 mi
3:00 PM75 °FScattered clouds.5 mph52%30.31 "Hg16 mi
2:00 PM74 °FScattered clouds.3 mph53%30.33 "Hg12 mi
1:00 PM71 °FPassing clouds.2 mph60%30.34 "Hg12 mi
12:00 PM70 °FPassing clouds.2 mph66%30.34 "Hg12 mi
11:00 AM66 °FSunny.2 mph77%30.35 "Hg11 mi
10:00 AM62 °FSunny.1 mph86%30.34 "Hg11 mi
9:00 AM55 °FPassing clouds.1 mph95%30.34 "Hg5 mi
8:00 AM54 °FFog.No wind96%30.33 "Hg5 mi
7:00 AM55 °FOvercast.No wind98%30.32 "Hg6 mi
6:00 AM55 °FFog.1 mph97%30.32 "Hg2 mi
Weather by CustomWeather, © 2014

See weather overviewHow to use our weather pages